M I D A S
Marine Information and Data Acquisition System
Tripno 1297 of the Zeeleeuw from 2007-07-03 06:32:08 to 2007-07-03 15:22:59
Back to CruiseResearch ActivitiesStationsMapUnderway DataData graphs

EquipmentUnitsComment
TimeDGPSUTC
LatitudeDGPSDM.mWGS84
LongitudeDGPSDM.mWGS84
HeadingGyrodeg 
SOGDGPSknotsSpeed over ground
COGDGPSdegCourse over ground
DepthEcho soundermeters200 kHz
Missing or incorrect values are displayed as -999
Navigation data collected by the RV Zeeleeuw from 2007-07-03 06:30:31 to 2007-07-03 15:33:31
Time Latitude Longitude Heading SOG COG Depth
2007-07-03 06:31:40 51°13.618 2°56.022 118.9 4.4 297 -999
2007-07-03 06:32:39 51°13.662 2°55.908 122.1 4.6 302 -999
2007-07-03 06:33:38 51°13.686 2°55.825 96.8 2.8 283 10.5
2007-07-03 06:34:36 51°13.687 2°55.768 74.7 1.8 266 10.8
2007-07-03 06:35:36 51°13.684 2°55.73 59.3 0.9 263 10.4
2007-07-03 06:36:36 51°13.722 2°55.722 343.3 4.9 336 11.6
2007-07-03 06:37:36 51°13.822 2°55.642 338.6 7.6 335 10.8
2007-07-03 06:38:36 51°13.944 2°55.555 339.8 8.3 336 10.6
2007-07-03 06:39:36 51°14.078 2°55.456 338.8 9.4 335 10.2
2007-07-03 06:40:36 51°14.223 2°55.32 327.1 10.9 322 10.2
2007-07-03 06:41:36 51°14.35 2°55.094 311.4 11.8 307 10.3
2007-07-03 06:42:36 51°14.421 2°54.781 284.1 13.4 278 10.5
2007-07-03 06:43:36 51°14.397 2°54.431 254 13.3 248 9
2007-07-03 06:44:36 51°14.29 2°54.121 242 13.5 240 8.4
2007-07-03 06:45:36 51°14.178 2°53.808 243 13.6 240 8.5
2007-07-03 06:46:36 51°14.065 2°53.493 243.5 13.7 241 8.6
2007-07-03 06:47:36 51°13.953 2°53.178 242.3 13.6 240 9.1
2007-07-03 06:48:36 51°13.843 2°52.861 242.8 13.7 241 9.1
2007-07-03 06:49:36 51°13.73 2°52.548 243.1 13.6 240 9.3
2007-07-03 06:50:36 51°13.617 2°52.236 242.7 13.6 240 9.5
2007-07-03 06:51:36 51°13.506 2°51.922 242.6 13.6 241 9.7
2007-07-03 06:52:36 51°13.394 2°51.607 243.1 13.6 240 9.6
2007-07-03 06:53:36 51°13.281 2°51.296 240.6 13.5 238 9.8
2007-07-03 06:54:36 51°13.161 2°50.993 240.7 13.5 239 9.9
2007-07-03 06:55:36 51°13.042 2°50.688 240.2 13.5 237 9.9
2007-07-03 06:56:36 51°12.922 2°50.384 240.9 13.5 238 9.7
2007-07-03 06:57:36 51°12.802 2°50.08 239.8 13.5 238 9.7
2007-07-03 06:58:36 51°12.682 2°49.776 239.8 13.5 237 9.7
2007-07-03 06:59:36 51°12.569 2°49.465 242.7 13.6 240 9.8
2007-07-03 07:00:36 51°12.456 2°49.155 241.8 13.5 240 9.6
2007-07-03 07:01:36 51°12.344 2°48.844 242.7 13.5 240 9.7
2007-07-03 07:02:36 51°12.236 2°48.53 246.4 13.5 245 9.8
2007-07-03 07:03:36 51°12.155 2°48.195 252 13.6 249 10.1
2007-07-03 07:04:36 51°12.072 2°47.859 251.4 13.6 249 10.3
2007-07-03 07:05:36 51°11.991 2°47.522 251.3 13.7 249 10.6
2007-07-03 07:06:36 51°11.909 2°47.184 250.7 13.7 249 10.6
2007-07-03 07:07:36 51°11.827 2°46.844 251.3 13.8 249 10.9
2007-07-03 07:08:36 51°11.748 2°46.501 255.4 13.8 254 11
2007-07-03 07:09:36 51°11.682 2°46.152 256 13.7 254 11.3
2007-07-03 07:10:36 51°11.618 2°45.802 257.8 13.8 255 11.4
2007-07-03 07:11:36 51°11.559 2°45.452 257.2 13.7 254 11.5
2007-07-03 07:12:36 51°11.499 2°45.102 257.3 13.7 254 11.4
2007-07-03 07:13:36 51°11.438 2°44.75 257.2 13.8 255 11.6
2007-07-03 07:14:36 51°11.38 2°44.398 257.6 13.7 255 11.5
2007-07-03 07:15:36 51°11.32 2°44.048 257.5 13.8 255 11.6
2007-07-03 07:16:36 51°11.26 2°43.696 257.5 13.8 255 11.4
2007-07-03 07:17:36 51°11.2 2°43.342 257.3 13.8 255 11.4
2007-07-03 07:18:36 51°11.139 2°42.988 256.9 13.9 254 11.4
2007-07-03 07:19:36 51°11.073 2°42.638 257.4 13.7 254 11.4
2007-07-03 07:20:36 51°11.082 2°42.357 284.1 8.2 277 11.4
2007-07-03 07:21:36 51°11.082 2°42.191 272.1 5.1 270 11.4
2007-07-03 07:22:36 51°11.089 2°42.089 289.2 2.2 281 11.2
2007-07-03 07:23:38 51°11.089 2°42.072 316.4 0.4 269 -999
2007-07-03 07:24:39 51°11.089 2°42.057 326.6 0.6 273 11.1
2007-07-03 07:25:36 51°11.091 2°42.043 330.2 0.7 282 11.2
2007-07-03 07:26:36 51°11.094 2°42.026 332.1 0.6 289 11.1
2007-07-03 07:27:36 51°11.098 2°42.011 330.5 0.7 289 11.1
2007-07-03 07:28:36 51°11.103 2°41.994 327.3 0.7 291 11
2007-07-03 07:29:36 51°11.107 2°41.976 322.2 0.7 295 11
2007-07-03 07:30:36 51°11.113 2°41.955 317.9 1.6 302 11
2007-07-03 07:31:36 51°11.124 2°41.843 267 7.1 260 10.9
2007-07-03 07:32:36 51°11.075 2°41.595 253.7 11.7 252 10.8
2007-07-03 07:33:36 51°11.013 2°41.271 254.9 13.4 254 10.9
2007-07-03 07:34:36 51°10.946 2°40.923 254.7 13.8 253 11.4
2007-07-03 07:35:36 51°10.881 2°40.572 254.6 13.9 253 11.8
2007-07-03 07:36:36 51°10.814 2°40.22 255.6 13.8 254 12.4
2007-07-03 07:37:36 51°10.749 2°39.866 255.3 13.9 253 13
2007-07-03 07:38:36 51°10.684 2°39.514 255.4 13.9 253 13.4
2007-07-03 07:39:36 51°10.619 2°39.159 255.1 13.9 254 14.4
2007-07-03 07:40:36 51°10.553 2°38.804 254.9 13.9 253 15.2
2007-07-03 07:41:36 51°10.488 2°38.451 255.4 13.9 254 15.9
2007-07-03 07:42:36 51°10.422 2°38.096 255.3 14 254 16.3
2007-07-03 07:43:36 51°10.357 2°37.74 255 14.1 254 16.5
2007-07-03 07:44:36 51°10.291 2°37.382 255 14.1 253 16.4
2007-07-03 07:45:36 51°10.225 2°37.025 255.1 14.1 254 16.4
2007-07-03 07:46:36 51°10.16 2°36.668 255.3 14.1 254 16.3
2007-07-03 07:47:36 51°10.106 2°36.305 264.5 14.1 263 16
2007-07-03 07:48:36 51°10.142 2°35.949 299.3 13.6 296 12.8
2007-07-03 07:49:37 51°10.302 2°35.725 343.4 12.6 343 9.4
2007-07-03 07:50:36 51°10.498 2°35.742 24.7 12 24 9.1
2007-07-03 07:51:36 51°10.673 2°35.9 36.6 12.1 31 9.4
2007-07-03 07:52:36 51°10.847 2°36.063 35.9 12.2 32 9.4
2007-07-03 07:53:36 51°11.021 2°36.226 35.4 12.2 32 9.9
2007-07-03 07:54:36 51°11.194 2°36.393 36 12.2 30 10
2007-07-03 07:55:36 51°11.368 2°36.557 36.2 12.2 30 10.1
2007-07-03 07:56:36 51°11.54 2°36.722 36 12.1 33 10.1
2007-07-03 07:57:36 51°11.713 2°36.887 36.5 12.1 31 10
2007-07-03 07:58:36 51°11.886 2°37.05 36.2 12.1 30 9.9
2007-07-03 07:59:36 51°12.058 2°37.215 36.5 12.1 30 9.9
2007-07-03 08:00:37 51°12.233 2°37.381 35.8 12 29 10.2
2007-07-03 08:01:36 51°12.402 2°37.545 37.3 12 31 10.2
2007-07-03 08:02:36 51°12.575 2°37.707 35.4 12.1 29 10.8
2007-07-03 08:03:36 51°12.747 2°37.874 37.1 12.1 30 11.2
2007-07-03 08:04:36 51°12.92 2°38.041 37.3 12.2 30 11.8
2007-07-03 08:05:36 51°13.093 2°38.205 35.3 12.1 31 12.4
2007-07-03 08:06:36 51°13.266 2°38.371 37.6 12.1 29 12.7
2007-07-03 08:07:36 51°13.44 2°38.534 35.9 12.1 31 12.8
2007-07-03 08:08:36 51°13.614 2°38.698 37 12.2 32 13
2007-07-03 08:09:36 51°13.791 2°38.855 33.4 12.2 25 12.7
2007-07-03 08:10:36 51°13.985 2°38.934 7.9 12.3 -999 11.4
2007-07-03 08:11:36 51°14.183 2°38.833 341 13 334 10.9
2007-07-03 08:12:36 51°14.377 2°38.676 341.6 13 333 16.3
2007-07-03 08:13:36 51°14.57 2°38.528 343.4 12.8 335 15.6
2007-07-03 08:14:36 51°14.762 2°38.384 343.5 12.8 336 14.9
2007-07-03 08:15:36 51°14.955 2°38.244 345.2 12.7 335 13.8
2007-07-03 08:16:36 51°15.146 2°38.101 344.6 12.7 336 10.9
2007-07-03 08:17:36 51°15.339 2°37.959 345.1 12.8 336 9.7
2007-07-03 08:18:37 51°15.537 2°37.813 345.2 12.9 336 9.3
2007-07-03 08:19:36 51°15.73 2°37.671 344.3 12.9 334 9.3
2007-07-03 08:20:36 51°15.923 2°37.522 342.6 13.1 333 9
2007-07-03 08:21:36 51°16.119 2°37.369 340.5 13.4 333 12
2007-07-03 08:22:36 51°16.311 2°37.197 337.3 13.1 329 23.4
2007-07-03 08:23:36 51°16.462 2°37.032 328.5 8.6 317 25.6
2007-07-03 08:24:36 51°16.539 2°36.889 321.8 5.9 309 24.9
2007-07-03 08:25:36 51°16.583 2°36.788 317.9 3.2 294 24.9
2007-07-03 08:26:37 51°16.581 2°36.762 312.1 0.7 224 -999
2007-07-03 08:27:39 51°16.574 2°36.749 330.3 0.7 229 25.1
2007-07-03 08:28:37 51°16.567 2°36.735 339.5 0.7 236 25.1
2007-07-03 08:29:36 51°16.562 2°36.719 338.5 0.7 243 25.3
2007-07-03 08:30:36 51°16.558 2°36.701 331.4 0.7 254 25.2
2007-07-03 08:31:36 51°16.553 2°36.683 324.1 0.7 248 25.1
2007-07-03 08:32:36 51°16.549 2°36.666 319.3 0.7 253 25.2
2007-07-03 08:33:36 51°16.548 2°36.644 321.9 2 296 25.1
2007-07-03 08:34:36 51°16.627 2°36.519 330.1 10.6 316 25.1
2007-07-03 08:35:36 51°16.76 2°36.277 320.3 13.2 308 25.3
2007-07-03 08:36:37 51°16.917 2°36.027 330.6 13 317 24.7
2007-07-03 08:37:36 51°17.077 2°35.806 330.9 12.8 320 17.8
2007-07-03 08:38:36 51°17.238 2°35.577 328.8 13.2 317 11.8
2007-07-03 08:39:36 51°17.4 2°35.342 327.1 13.4 316 10.3
2007-07-03 08:40:36 51°17.556 2°35.086 323.2 13.2 312 9.4
2007-07-03 08:41:36 51°17.709 2°34.82 320.8 13.4 309 10
2007-07-03 08:42:36 51°17.852 2°34.536 318.6 13.6 308 23.4
2007-07-03 08:43:36 51°17.991 2°34.251 318.5 13.6 308 26.7
2007-07-03 08:44:36 51°18.129 2°33.967 318.6 13.5 308 25
2007-07-03 08:45:37 51°18.271 2°33.68 319 13.5 308 21.2
2007-07-03 08:46:37 51°18.411 2°33.402 319 13.5 309 16.8
2007-07-03 08:47:36 51°18.547 2°33.127 316.6 13.4 306 22.7
2007-07-03 08:48:37 51°18.683 2°32.842 317.2 13.2 308 26.5
2007-07-03 08:49:36 51°18.813 2°32.566 316.4 13.3 308 27.6
2007-07-03 08:50:36 51°18.943 2°32.284 317.9 13.2 306 29.4
2007-07-03 08:51:36 51°19.075 2°32.005 318.8 13.1 306 29.3
2007-07-03 08:52:36 51°19.205 2°31.725 318.1 13.2 307 29.1
2007-07-03 08:53:36 51°19.331 2°31.437 317 13.3 304 29
2007-07-03 08:54:36 51°19.46 2°31.15 317.3 13.2 306 28
2007-07-03 08:55:36 51°19.591 2°30.864 317.6 13.2 307 22.6
2007-07-03 08:56:36 51°19.723 2°30.576 317.3 13.6 307 17
2007-07-03 08:57:36 51°19.856 2°30.306 321 10.6 310 13.3
2007-07-03 08:58:36 51°19.934 2°30.137 317.7 6.3 303 13.2
2007-07-03 08:59:36 51°19.981 2°30.021 321.9 4.2 306 13.2
2007-07-03 09:00:36 51°20.006 2°29.956 320 1.3 267 9
2007-07-03 09:01:39 51°20.005 2°29.924 338.7 1.1 271 -999
2007-07-03 09:02:37 51°20.007 2°29.896 345.2 1.3 278 12.2
2007-07-03 09:03:36 51°20.011 2°29.863 339.7 1 286 13.1
2007-07-03 09:04:37 51°20.014 2°29.833 333.6 1.2 274 15.5
2007-07-03 09:05:36 51°20.016 2°29.807 325.4 0.8 277 18.2
2007-07-03 09:06:36 51°20.024 2°29.779 329.9 2 304 21.4
2007-07-03 09:07:36 51°20.08 2°29.713 350 6.8 339 29
2007-07-03 09:08:36 51°20.179 2°29.802 68.7 8.1 70 26.6
2007-07-03 09:09:36 51°20.242 2°30.045 70.4 11.7 65 16.9
2007-07-03 09:10:36 51°20.322 2°30.321 69.3 11.4 68 11
2007-07-03 09:11:36 51°20.384 2°30.602 75.3 11.6 69 11.5
2007-07-03 09:12:36 51°20.443 2°30.891 74.8 11.2 76 13.2
2007-07-03 09:13:36 51°20.503 2°31.177 75.4 11.2 74 14.7
2007-07-03 09:14:36 51°20.587 2°31.444 64.5 11.4 59 16.7
2007-07-03 09:15:36 51°20.682 2°31.71 62.9 11.6 62 18.7
2007-07-03 09:16:36 51°20.769 2°31.976 63.5 11.2 64 23.1
2007-07-03 09:17:36 51°20.855 2°32.25 62.4 11.3 58 25.4
2007-07-03 09:18:36 51°20.943 2°32.524 64 11.4 62 28.2
2007-07-03 09:19:36 51°21.032 2°32.794 62.7 11.8 62 28.6
2007-07-03 09:20:36 51°21.122 2°33.064 64.5 11.8 63 28.9
2007-07-03 09:21:36 51°21.211 2°33.339 63.1 11.5 67 29.8
2007-07-03 09:22:36 51°21.299 2°33.617 65.3 11.5 66 29.6
2007-07-03 09:23:36 51°21.386 2°33.897 64.5 11.9 63 31
2007-07-03 09:24:36 51°21.471 2°34.168 64.7 11.5 60 31.1
2007-07-03 09:25:36 51°21.555 2°34.444 66.2 11.6 68 31.4
2007-07-03 09:26:36 51°21.647 2°34.719 63.2 11.6 61 29
2007-07-03 09:27:36 51°21.733 2°34.994 63 11.5 64 29
2007-07-03 09:28:36 51°21.821 2°35.267 64.5 11.8 63 29.5
2007-07-03 09:29:36 51°21.907 2°35.543 66 12.1 66 29.2
2007-07-03 09:30:36 51°22.011 2°35.808 58.8 11.8 57 29.5
2007-07-03 09:31:36 51°22.124 2°36.066 56.8 12 57 29.3
2007-07-03 09:32:36 51°22.234 2°36.322 56 11.6 56 30
2007-07-03 09:33:36 51°22.339 2°36.581 58.8 11.7 58 29.5
2007-07-03 09:34:36 51°22.449 2°36.839 56.9 11.7 55 29
2007-07-03 09:35:36 51°22.552 2°37.097 60.2 11.3 65 28.7
2007-07-03 09:36:36 51°22.657 2°37.357 59.6 11.5 58 28
2007-07-03 09:37:36 51°22.748 2°37.64 64.5 11.9 64 28.9
2007-07-03 09:38:36 51°22.839 2°37.92 63.8 11.5 64 29.3
2007-07-03 09:39:36 51°22.925 2°38.199 64.7 11.7 64 29.3
2007-07-03 09:40:36 51°23.013 2°38.48 63.3 11.6 62 28.9
2007-07-03 09:41:36 51°23.099 2°38.752 62.6 11.5 62 28.2
2007-07-03 09:42:36 51°23.183 2°39.029 64.1 11.5 66 28.9
2007-07-03 09:43:37 51°23.273 2°39.309 63.2 11.2 63 28.9
2007-07-03 09:44:36 51°23.358 2°39.582 67.3 11.5 64 28.5
2007-07-03 09:45:37 51°23.448 2°39.869 63.4 11.6 66 27.6
2007-07-03 09:46:36 51°23.535 2°40.147 63.6 11.9 63 28.5
2007-07-03 09:47:36 51°23.644 2°40.4 41.8 11.5 35 28.9
2007-07-03 09:48:36 51°23.829 2°40.369 337.4 12.4 321 28.4
2007-07-03 09:49:36 51°23.911 2°40.048 291.5 13.7 285 27.8
2007-07-03 09:50:37 51°23.975 2°39.691 296 13.6 287 26
2007-07-03 09:51:36 51°24.032 2°39.349 293.7 13.2 286 26.3
2007-07-03 09:52:37 51°24.075 2°38.991 290.8 13.6 282 23.3
2007-07-03 09:53:36 51°24.142 2°38.656 299.7 13.4 291 24.5
2007-07-03 09:54:36 51°24.222 2°38.388 305.6 9.6 293 24.2
2007-07-03 09:55:36 51°24.289 2°38.17 313.4 8.9 299 24.3
2007-07-03 09:56:37 51°24.397 2°38.04 356.4 7.4 349 25.7
2007-07-03 09:57:37 51°24.498 2°38.064 357.8 6.5 331 26.6
2007-07-03 09:58:36 51°24.507 2°37.862 252.5 9.8 244 30.3
2007-07-03 09:59:36 51°24.395 2°37.682 213.3 9.8 213 28.7
2007-07-03 10:00:36 51°24.246 2°37.582 193.2 9.8 196 27.5
2007-07-03 10:01:37 51°24.101 2°37.453 222 10 224 25.4
2007-07-03 10:02:36 51°24.001 2°37.245 240 9.9 234 26.2
2007-07-03 10:03:37 51°23.916 2°37.02 245.7 9.9 239 25.1
2007-07-03 10:04:36 51°23.88 2°36.792 291.1 8.7 281 27.8
2007-07-03 10:05:36 51°23.971 2°36.63 348.4 9.1 341 30
2007-07-03 10:06:36 51°24.15 2°36.612 19.4 11.3 11 31.6
2007-07-03 10:07:36 51°24.291 2°36.783 58 11.1 56 31.4
2007-07-03 10:08:36 51°24.383 2°37.043 66.5 11.2 67 31
2007-07-03 10:09:36 51°24.457 2°37.319 68.8 11.8 67 31.9
2007-07-03 10:10:37 51°24.509 2°37.616 77.3 11.3 77 29.8
2007-07-03 10:11:36 51°24.544 2°37.908 80.2 11.5 82 30.4
2007-07-03 10:12:37 51°24.505 2°38.204 120.5 12 124 25.9
2007-07-03 10:13:37 51°24.318 2°38.366 163.7 13.5 171 24.9
2007-07-03 10:14:37 51°24.099 2°38.274 212.5 14.2 214 25.3
2007-07-03 10:15:37 51°23.995 2°38.049 254.4 8.3 247 23.6
2007-07-03 10:16:36 51°23.953 2°37.873 259.8 7.7 254 24.2
2007-07-03 10:17:37 51°23.993 2°37.622 319 10.6 312 22.3
2007-07-03 10:18:36 51°24.151 2°37.589 33.1 10.8 28 25.4
2007-07-03 10:19:37 51°24.286 2°37.8 50.4 11.2 51 25.7
2007-07-03 10:20:36 51°24.404 2°38.031 56.3 11.8 51 26
2007-07-03 10:21:36 51°24.509 2°38.285 62.1 11.6 62 25.4
2007-07-03 10:22:36 51°24.576 2°38.564 75.5 11.5 83 23.9
2007-07-03 10:23:36 51°24.611 2°38.872 82.4 11.6 80 26.9
2007-07-03 10:24:37 51°24.644 2°39.19 81 12 79 24.1
2007-07-03 10:25:36 51°24.685 2°39.492 78.4 11.6 77 25.8
2007-07-03 10:26:37 51°24.726 2°39.801 79.1 11.9 77 27.2
2007-07-03 10:27:36 51°24.769 2°40.102 77.8 11.4 76 26.3
2007-07-03 10:28:37 51°24.814 2°40.417 78 12.1 78 25.6
2007-07-03 10:29:37 51°24.854 2°40.725 79.1 11.5 78 24.7
2007-07-03 10:30:37 51°24.897 2°41.034 78 11.9 78 25.8
2007-07-03 10:31:36 51°24.933 2°41.337 78.8 12.4 84 25.2
2007-07-03 10:32:36 51°24.973 2°41.645 76.5 11.8 78 25.9
2007-07-03 10:33:37 51°25.014 2°41.956 79.9 11.6 80 24.5
2007-07-03 10:34:36 51°25.055 2°42.256 78.9 11.5 78 25.2
2007-07-03 10:35:37 51°25.094 2°42.571 80.2 11.9 82 25.1
2007-07-03 10:36:36 51°25.136 2°42.874 78.3 11.8 77 23.7
2007-07-03 10:37:37 51°25.171 2°43.193 79.9 11.7 78 20.5
2007-07-03 10:38:36 51°25.206 2°43.493 76.4 11.9 81 23.2
2007-07-03 10:39:36 51°25.249 2°43.798 75.4 12.5 78 21.2
2007-07-03 10:40:37 51°25.286 2°44.106 78.1 11.5 82 23
2007-07-03 10:41:36 51°25.32 2°44.407 79.1 11.6 76 23
2007-07-03 10:42:37 51°25.357 2°44.72 77 11.7 76 23.1
2007-07-03 10:43:36 51°25.395 2°45.025 76.2 11.7 75 24.3
2007-07-03 10:44:37 51°25.427 2°45.34 78.8 11.7 82 24.9
2007-07-03 10:45:36 51°25.461 2°45.651 78.9 12.1 80 24.1
2007-07-03 10:46:36 51°25.496 2°45.964 78.1 12.3 78 25.1
2007-07-03 10:47:37 51°25.533 2°46.28 77.6 11.8 74 22.6
2007-07-03 10:48:36 51°25.567 2°46.588 79.4 11.9 78 23.8
2007-07-03 10:49:37 51°25.6 2°46.909 81 12.1 78 24.5
2007-07-03 10:50:36 51°25.636 2°47.217 78.4 12.2 81 24.9
2007-07-03 10:51:37 51°25.669 2°47.545 80.6 12.4 83 24.4
2007-07-03 10:52:36 51°25.707 2°47.854 76.6 11.9 75 23.6
2007-07-03 10:53:37 51°25.764 2°48.149 70.8 10.6 69 23.4
2007-07-03 10:54:37 51°25.824 2°48.338 59.8 5.9 60 23.5
2007-07-03 10:55:37 51°25.869 2°48.434 43.6 3.7 35 23.5
2007-07-03 10:56:37 51°25.924 2°48.463 22.1 3.4 16 23.3
2007-07-03 10:57:36 51°25.977 2°48.485 24.8 3.4 15 23.5
2007-07-03 10:58:37 51°26.007 2°48.49 12.7 0.5 254 23.6
2007-07-03 10:59:36 51°26.007 2°48.475 349.4 0.7 278 23.4
2007-07-03 11:00:36 51°26.008 2°48.453 332 0.7 271 23.4
2007-07-03 11:01:36 51°26.007 2°48.431 320.8 0.8 263 23.9
2007-07-03 11:02:37 51°26.004 2°48.41 310.3 0.6 253 23.4
2007-07-03 11:03:36 51°25.999 2°48.397 307.4 0.6 233 23.6
2007-07-03 11:04:36 51°25.997 2°48.379 307.1 1.6 282 23.6
2007-07-03 11:05:37 51°26.029 2°48.305 334 5.4 327 23.5
2007-07-03 11:06:37 51°26.109 2°48.368 58.9 7.6 68 22.1
2007-07-03 11:07:37 51°26.135 2°48.628 76.2 11.8 78 22.6
2007-07-03 11:08:36 51°26.18 2°48.93 75.3 11.6 75 23.2
2007-07-03 11:09:37 51°26.22 2°49.253 77.4 12 78 23.3
2007-07-03 11:10:37 51°26.254 2°49.569 78.3 12 78 23.2
2007-07-03 11:11:36 51°26.293 2°49.874 77.8 11.8 79 23.2
2007-07-03 11:12:37 51°26.337 2°50.187 77.7 12.1 77 23.6
2007-07-03 11:13:37 51°26.377 2°50.499 77.1 12.2 77 23.6
2007-07-03 11:14:37 51°26.417 2°50.815 78.6 12.3 80 23.4
2007-07-03 11:15:36 51°26.458 2°51.125 75.8 11.9 74 25.8
2007-07-03 11:16:37 51°26.503 2°51.44 77.7 11.8 78 26.1
2007-07-03 11:17:36 51°26.542 2°51.742 77.9 12 80 26.4
2007-07-03 11:18:36 51°26.589 2°52.051 77.6 11.9 78 25.9
2007-07-03 11:19:36 51°26.628 2°52.357 79.6 11.4 76 27
2007-07-03 11:20:36 51°26.679 2°52.659 75.2 11.9 73 28
2007-07-03 11:21:36 51°26.731 2°52.963 77.2 12 78 29
2007-07-03 11:22:36 51°26.778 2°53.268 77.1 11.9 78 29.3
2007-07-03 11:23:36 51°26.83 2°53.57 75.6 11.7 73 27.5
2007-07-03 11:24:36 51°26.879 2°53.868 77.4 11.5 75 26.7
2007-07-03 11:25:37 51°26.928 2°54.174 75.7 11.9 73 23.2
2007-07-03 11:26:36 51°26.978 2°54.47 75 11.5 77 26.1
2007-07-03 11:27:36 51°27.025 2°54.771 76.7 11.5 77 27.9
2007-07-03 11:28:37 51°27.075 2°55.081 77 11.8 76 27.9
2007-07-03 11:29:36 51°27.124 2°55.386 78.5 12.4 73 28.7
2007-07-03 11:30:36 51°27.176 2°55.701 77.8 12.1 76 30.2
2007-07-03 11:31:36 51°27.227 2°56.007 76.7 12.1 73 28.5
2007-07-03 11:32:37 51°27.276 2°56.321 76.2 12.1 74 27.2
2007-07-03 11:33:37 51°27.323 2°56.628 78.3 12.2 77 23.1
2007-07-03 11:34:36 51°27.369 2°56.93 77.1 11.9 80 24.1
2007-07-03 11:35:36 51°27.419 2°57.237 76.5 12.1 79 25.9
2007-07-03 11:36:36 51°27.471 2°57.543 76.9 12.1 79 25.5
2007-07-03 11:37:37 51°27.52 2°57.865 77.4 12.4 80 24.5
2007-07-03 11:38:36 51°27.567 2°58.171 79.2 11.7 76 18.3
2007-07-03 11:39:36 51°27.616 2°58.484 76.3 12.4 77 20.1
2007-07-03 11:40:36 51°27.663 2°58.799 78.7 12.2 80 19.1
2007-07-03 11:41:37 51°27.714 2°59.122 76.8 12.2 74 18.7
2007-07-03 11:42:36 51°27.762 2°59.438 78 12.1 75 19
2007-07-03 11:43:36 51°27.804 2°59.759 78.2 12.1 78 19.2
2007-07-03 11:44:37 51°27.856 3°0.079 75.8 12.3 75 19.5
2007-07-03 11:45:36 51°27.903 3°0.389 76.7 11.7 79 21.6
2007-07-03 11:46:36 51°27.954 3°0.702 76.5 12.1 76 21.8
2007-07-03 11:47:36 51°28.008 3°1.015 77.7 11.8 77 22.2
2007-07-03 11:48:36 51°28.056 3°1.326 78.3 11.9 75 23.5
2007-07-03 11:49:36 51°28.094 3°1.64 82.8 12.2 84 23.9
2007-07-03 11:50:36 51°28.134 3°1.958 79.1 12.2 74 23.9
2007-07-03 11:51:36 51°28.167 3°2.28 85.5 12.2 81 24.1
2007-07-03 11:52:36 51°28.192 3°2.604 85.2 12.2 81 23.9
2007-07-03 11:53:37 51°28.215 3°2.931 86.3 11.8 86 23.6
2007-07-03 11:54:36 51°28.216 3°3.188 93.1 8.6 90 23
2007-07-03 11:55:37 51°28.241 3°3.331 62 4.3 62 22.8
2007-07-03 11:56:36 51°28.263 3°3.421 75.5 3.2 76 22.8
2007-07-03 11:57:37 51°28.268 3°3.484 89.3 1 111 22.8
2007-07-03 11:58:36 51°28.264 3°3.488 110.6 0.2 153 22.7
2007-07-03 11:59:36 51°28.257 3°3.492 129.6 0.5 168 22.5
2007-07-03 12:00:36 51°28.249 3°3.497 136.5 0.4 142 22.3
2007-07-03 12:01:37 51°28.24 3°3.502 143.8 0.6 167 22.6
2007-07-03 12:02:37 51°28.233 3°3.505 147.1 0.4 169 22.7
2007-07-03 12:03:36 51°28.228 3°3.507 145.2 0.3 171 22.5
2007-07-03 12:04:36 51°28.224 3°3.51 138.1 0.2 162 22.2
2007-07-03 12:05:36 51°28.223 3°3.513 128.5 0.2 144 22.5
2007-07-03 12:06:36 51°28.221 3°3.517 125.5 0.2 115 22.6
2007-07-03 12:07:36 51°28.207 3°3.544 130.6 3 133 22.3
2007-07-03 12:08:37 51°28.15 3°3.666 116.8 7.6 115 21.5
2007-07-03 12:09:37 51°28.086 3°3.888 117.2 10 113 20.3
2007-07-03 12:10:36 51°28.005 3°4.126 119 10.4 119 18.9
2007-07-03 12:11:36 51°27.922 3°4.37 119.7 10.4 118 17.1
2007-07-03 12:12:36 51°27.837 3°4.617 118.8 10.9 120 15.6
2007-07-03 12:13:36 51°27.746 3°4.882 118.7 11.6 118 14.7
2007-07-03 12:14:36 51°27.656 3°5.151 118.5 11.7 120 15
2007-07-03 12:15:36 51°27.563 3°5.42 118.7 11.5 118 15.6
2007-07-03 12:16:37 51°27.465 3°5.688 119.4 11.5 119 14.9
2007-07-03 12:17:37 51°27.367 3°5.954 120.9 11.5 121 14.7
2007-07-03 12:18:37 51°27.267 3°6.219 121.1 11.6 122 14.2
2007-07-03 12:19:36 51°27.169 3°6.484 118.5 11.8 121 14
2007-07-03 12:20:36 51°27.068 3°6.753 120.9 11.9 124 13.4
2007-07-03 12:21:36 51°26.964 3°7.022 122.3 11.7 125 12.9
2007-07-03 12:22:37 51°26.862 3°7.3 119.7 12.2 119 12.4
2007-07-03 12:23:36 51°26.761 3°7.568 119.7 11.8 124 12
2007-07-03 12:24:37 51°26.658 3°7.847 121.1 11.8 118 11.5
2007-07-03 12:25:37 51°26.573 3°8.12 107.3 10 110 11.3
2007-07-03 12:26:37 51°26.492 3°8.276 142.2 6.1 142 11.5
2007-07-03 12:27:37 51°26.428 3°8.366 139 4.4 137 11.8
2007-07-03 12:28:36 51°26.401 3°8.409 151.7 0.5 84 11.7
2007-07-03 12:29:40 51°26.4 3°8.424 128.3 0.7 112 11.4
2007-07-03 12:30:37 51°26.393 3°8.444 122.5 1 117 11.7
2007-07-03 12:31:37 51°26.385 3°8.47 120.1 1.2 120 11.6
2007-07-03 12:32:36 51°26.377 3°8.497 121.9 1.2 115 11.6
2007-07-03 12:33:37 51°26.368 3°8.527 126.2 1.3 121 11.4
2007-07-03 12:34:37 51°26.359 3°8.556 132 1.3 117 11.6
2007-07-03 12:35:36 51°26.35 3°8.586 131.3 1.3 114 11.4
2007-07-03 12:36:36 51°26.341 3°8.618 130.8 1.2 112 11.5
2007-07-03 12:37:36 51°26.334 3°8.65 128.1 1.3 113 11.4
2007-07-03 12:38:36 51°26.326 3°8.682 127.1 1.4 114 11.6
2007-07-03 12:39:36 51°26.318 3°8.715 132.2 1.4 117 11.5
2007-07-03 12:40:36 51°26.31 3°8.75 130.2 1.3 110 11.4
2007-07-03 12:41:36 51°26.302 3°8.785 131.7 1.4 106 11.2
2007-07-03 12:42:36 51°26.295 3°8.822 134.9 1.4 105 11.4
2007-07-03 12:43:37 51°26.287 3°8.858 134.2 1.4 104 11.1
2007-07-03 12:44:37 51°26.274 3°8.903 136.2 2.7 122 11.3
2007-07-03 12:45:37 51°26.221 3°9.015 127 7.8 121 10.9
2007-07-03 12:46:36 51°26.157 3°9.259 109.1 11.6 109 10.5
2007-07-03 12:47:36 51°26.095 3°9.575 106.6 13.2 107 9.9
2007-07-03 12:48:36 51°26.034 3°9.932 106 14.4 103 9.6
2007-07-03 12:49:37 51°25.961 3°10.302 110.9 14.2 112 9.3
2007-07-03 12:50:37 51°25.863 3°10.653 122.2 14.4 124 9
2007-07-03 12:51:37 51°25.692 3°10.92 145.1 14.3 138 8.8
2007-07-03 12:52:37 51°25.504 3°11.16 146.6 14.5 144 10.2
2007-07-03 12:53:36 51°25.312 3°11.37 154.1 14.3 148 11.1
2007-07-03 12:54:36 51°25.109 3°11.555 157.1 14.2 153 11.6
2007-07-03 12:55:36 51°24.902 3°11.722 162.5 13.8 154 12.9
2007-07-03 12:56:37 51°24.693 3°11.888 161.4 13.7 154 14.6
2007-07-03 12:57:36 51°24.493 3°12.059 160.2 13.8 149 19.1
2007-07-03 12:58:37 51°24.294 3°12.24 161.8 13.7 150 19.6
2007-07-03 12:59:36 51°24.099 3°12.413 162.1 13.6 149 16.9
2007-07-03 13:00:36 51°23.901 3°12.591 161.7 13.7 150 13.8
2007-07-03 13:01:36 51°23.702 3°12.767 161.5 13.6 151 13.1
2007-07-03 13:02:36 51°23.504 3°12.944 161.9 13.7 150 12.7
2007-07-03 13:03:36 51°23.305 3°13.121 160.8 13.7 150 12.9
2007-07-03 13:04:36 51°23.106 3°13.301 161.1 13.9 149 12.7
2007-07-03 13:05:36 51°22.918 3°13.411 188.1 9.2 174 12.8
2007-07-03 13:06:37 51°22.806 3°13.389 217.6 5.1 195 13.1
2007-07-03 13:07:36 51°22.74 3°13.385 211.4 3.2 176 13.3
2007-07-03 13:08:36 51°22.703 3°13.379 238 2.4 210 13.5
2007-07-03 13:09:36 51°22.65 3°13.332 233.7 4 214 13.5
2007-07-03 13:10:37 51°22.615 3°13.269 254.5 2.2 239 13.8
2007-07-03 13:11:37 51°22.603 3°13.23 257.8 1.2 240 14
2007-07-03 13:12:36 51°22.597 3°13.228 252.8 0.6 129 14.1
2007-07-03 13:13:36 51°22.593 3°13.251 253 1.2 94 14
2007-07-03 13:14:36 51°22.595 3°13.29 258 1.7 85 14
2007-07-03 13:15:37 51°22.599 3°13.341 263.1 2 83 13.9
2007-07-03 13:16:36 51°22.605 3°13.398 267.5 2.3 78 13.8
2007-07-03 13:17:36 51°22.612 3°13.419 274.6 2.9 280 13.6
2007-07-03 13:18:36 51°22.608 3°13.221 263.9 9.9 257 14
2007-07-03 13:19:36 51°22.557 3°12.957 260.4 10.4 256 14.6
2007-07-03 13:20:37 51°22.522 3°12.679 263.1 10.5 260 15.6
2007-07-03 13:21:36 51°22.493 3°12.409 263.9 10.6 260 16.2
2007-07-03 13:22:36 51°22.463 3°12.135 264 10.5 261 16.8
2007-07-03 13:23:36 51°22.436 3°11.861 263.4 10.4 260 17.4
2007-07-03 13:24:36 51°22.411 3°11.584 264.1 10.5 263 17.6
2007-07-03 13:25:37 51°22.449 3°11.304 285.6 11 288 17.9
2007-07-03 13:26:36 51°22.505 3°11.031 284.8 11.1 287 17.5
2007-07-03 13:27:36 51°22.553 3°10.748 280.1 11 281 17.5
2007-07-03 13:28:37 51°22.552 3°10.458 260.1 10.7 254 18.2
2007-07-03 13:29:38 51°22.458 3°10.208 241.1 10.9 236 20.3
2007-07-03 13:30:37 51°22.375 3°9.96 252.3 10.6 252 16.1
2007-07-03 13:31:37 51°22.332 3°9.683 257.8 10.8 257 15.6
2007-07-03 13:32:37 51°22.293 3°9.402 258.1 10.7 257 15.1
2007-07-03 13:33:36 51°22.256 3°9.126 257.8 10.7 257 14.9
2007-07-03 13:34:36 51°22.219 3°8.85 258 10.7 258 15
2007-07-03 13:35:36 51°22.183 3°8.571 257.9 10.7 258 14.6
2007-07-03 13:36:36 51°22.146 3°8.291 258.7 10.9 259 14.7
2007-07-03 13:37:37 51°22.108 3°8.004 257.7 10.9 258 14.5
2007-07-03 13:38:37 51°22.067 3°7.722 256.5 10.8 256 14.3
2007-07-03 13:39:36 51°22.021 3°7.447 254.5 10.9 253 14.5
2007-07-03 13:40:37 51°21.967 3°7.165 254 10.9 252 14.2
2007-07-03 13:41:36 51°21.917 3°6.891 254 10.9 253 14.1
2007-07-03 13:42:36 51°21.867 3°6.612 254.6 10.9 254 14.1
2007-07-03 13:43:36 51°21.814 3°6.335 251.7 10.8 250 13.7
2007-07-03 13:44:36 51°21.753 3°6.065 251.2 10.8 250 13.7
2007-07-03 13:45:36 51°21.693 3°5.796 251.3 10.7 251 13.7
2007-07-03 13:46:36 51°21.632 3°5.527 251.2 10.9 250 13.4
2007-07-03 13:47:37 51°21.571 3°5.251 251.4 10.8 250 13.5
2007-07-03 13:48:36 51°21.513 3°4.986 251.1 10.7 250 13.4
2007-07-03 13:49:37 51°21.452 3°4.71 251.1 10.8 251 13.3
2007-07-03 13:50:37 51°21.393 3°4.437 251.6 10.9 251 13.3
2007-07-03 13:51:36 51°21.335 3°4.17 251.2 10.9 252 13.3
2007-07-03 13:52:37 51°21.277 3°3.894 251.6 10.7 251 13.4
2007-07-03 13:53:36 51°21.22 3°3.629 251 10.8 252 13.2
2007-07-03 13:54:36 51°21.162 3°3.357 251.7 10.9 251 13.2
2007-07-03 13:55:37 51°21.099 3°3.08 251 10.9 250 13.2
2007-07-03 13:56:36 51°21.038 3°2.814 251.3 10.9 250 12.9
2007-07-03 13:57:36 51°20.979 3°2.538 250.9 10.8 250 13.1
2007-07-03 13:58:36 51°20.919 3°2.268 250.5 10.8 251 13.1
2007-07-03 13:59:36 51°20.86 3°1.999 251.7 10.8 249 13
2007-07-03 14:00:36 51°20.8 3°1.728 251.2 10.9 250 12.8
2007-07-03 14:01:36 51°20.739 3°1.453 251.2 11 252 13.1
2007-07-03 14:02:36 51°20.677 3°1.176 250.9 11.1 250 12.9
2007-07-03 14:03:36 51°20.616 3°0.895 251.1 11.2 251 12.8
2007-07-03 14:04:36 51°20.554 3°0.614 251 11.3 250 13
2007-07-03 14:05:37 51°20.49 3°0.327 251.1 11.3 252 13
2007-07-03 14:06:36 51°20.429 3°0.047 250.9 11.3 252 12.9
2007-07-03 14:07:36 51°20.368 2°59.765 251.8 11.3 251 13
2007-07-03 14:08:37 51°20.305 2°59.477 250.9 11.3 250 13
2007-07-03 14:09:37 51°20.246 2°59.195 250.9 11.2 251 13.2
2007-07-03 14:10:36 51°20.187 2°58.915 251.2 11.3 250 13.3
2007-07-03 14:11:37 51°20.124 2°58.627 250.9 11.3 251 13.3
2007-07-03 14:12:36 51°20.066 2°58.346 251.4 11.4 251 13.5
2007-07-03 14:13:36 51°20.005 2°58.062 251.3 11.3 251 13.5
2007-07-03 14:14:37 51°19.944 2°57.77 251.2 11.4 251 13.8
2007-07-03 14:15:36 51°19.884 2°57.486 251.3 11.5 252 13.6
2007-07-03 14:16:36 51°19.824 2°57.198 251.2 11.4 253 13.8
2007-07-03 14:17:36 51°19.764 2°56.907 250.9 11.5 251 13.8
2007-07-03 14:18:37 51°19.703 2°56.611 251.3 11.6 252 13.9
2007-07-03 14:19:36 51°19.644 2°56.323 251.5 11.5 252 14
2007-07-03 14:20:36 51°19.583 2°56.031 251 11.6 252 14.1
2007-07-03 14:21:37 51°19.523 2°55.733 251.4 11.7 251 14.2
2007-07-03 14:22:36 51°19.463 2°55.444 250.8 11.7 252 14.6
2007-07-03 14:23:37 51°19.402 2°55.146 251.4 11.6 252 14.5
2007-07-03 14:24:36 51°19.343 2°54.857 252.1 11.6 252 14.4
2007-07-03 14:25:36 51°19.282 2°54.564 251.6 11.7 252 14.4
2007-07-03 14:26:37 51°19.221 2°54.263 251.3 11.7 251 14.6
2007-07-03 14:27:36 51°19.16 2°53.972 251 11.8 252 14.6
2007-07-03 14:28:36 51°19.099 2°53.676 251.1 11.7 252 14.7
2007-07-03 14:29:36 51°19.038 2°53.381 251.1 11.7 251 14.5
2007-07-03 14:30:37 51°18.976 2°53.082 251.1 11.7 252 14.5
2007-07-03 14:31:36 51°18.916 2°52.793 251.1 11.7 252 14.7
2007-07-03 14:32:36 51°18.858 2°52.497 251.3 11.6 252 14.9
2007-07-03 14:33:37 51°18.796 2°52.199 249.3 11.6 249 15.3
2007-07-03 14:34:36 51°18.729 2°51.917 248.9 11.7 250 15.8
2007-07-03 14:35:37 51°18.66 2°51.623 248.9 11.7 250 16
2007-07-03 14:36:36 51°18.595 2°51.339 250 10.3 250 16.3
2007-07-03 14:37:36 51°18.548 2°51.168 240.9 4.9 245 16.6
2007-07-03 14:38:36 51°18.527 2°51.077 244 2.7 250 16.7
2007-07-03 14:39:36 51°18.513 2°51.027 237.3 1.5 244 16.5
2007-07-03 14:40:36 51°18.503 2°51 223 0.2 143 16.6
2007-07-03 14:41:36 51°18.503 2°51.015 202.2 0.9 88 16.6
2007-07-03 14:42:37 51°18.507 2°51.044 194.4 1.2 72 16.6
2007-07-03 14:43:36 51°18.516 2°51.076 193.6 1.4 62 16.4
2007-07-03 14:44:37 51°18.527 2°51.111 191.8 1.6 63 16.5
2007-07-03 14:45:36 51°18.541 2°51.145 186.6 1.7 56 16.5
2007-07-03 14:46:37 51°18.54 2°51.183 180.1 2.6 144 16.5
2007-07-03 14:47:36 51°18.464 2°51.31 138.9 9.9 128 16
2007-07-03 14:48:36 51°18.345 2°51.552 134.9 12.2 128 14.9
2007-07-03 14:49:37 51°18.201 2°51.814 140.5 13.2 134 13.7
2007-07-03 14:50:36 51°18.05 2°52.06 140.3 13.2 131 13
2007-07-03 14:51:37 51°17.896 2°52.318 142.9 13.4 136 13.1
2007-07-03 14:52:36 51°17.742 2°52.555 145.9 13.1 138 12.7
2007-07-03 14:53:37 51°17.568 2°52.766 153.1 12.8 143 12.7
2007-07-03 14:54:37 51°17.393 2°52.964 152.1 13 144 12.2
2007-07-03 14:55:37 51°17.217 2°53.157 153.2 12.8 146 11.7
2007-07-03 14:56:36 51°17.041 2°53.339 155.7 12.8 148 10.8
2007-07-03 14:57:37 51°16.863 2°53.547 146.5 13.5 138 13.5
2007-07-03 14:58:37 51°16.704 2°53.795 144.1 13.3 137 13.8
2007-07-03 14:59:37 51°16.59 2°54.031 121.4 10.2 111 14.1
2007-07-03 15:00:37 51°16.537 2°54.253 126.6 7.2 113 14
2007-07-03 15:01:37 51°16.496 2°54.38 154.7 3.8 128 14
2007-07-03 15:02:37 51°16.457 2°54.432 180.4 3 149 13.9
2007-07-03 15:03:36 51°16.408 2°54.466 184.6 3.2 158 13.6
2007-07-03 15:04:37 51°16.365 2°54.485 202 2.4 174 13.7
2007-07-03 15:05:37 51°16.322 2°54.479 210.1 2.4 188 13.7
2007-07-03 15:06:37 51°16.291 2°54.468 218.4 1.6 197 13.7
2007-07-03 15:07:37 51°16.272 2°54.457 227.2 0.8 195 13.6
2007-07-03 15:08:37 51°16.265 2°54.456 230.3 0.2 155 13.6
2007-07-03 15:09:37 51°16.264 2°54.464 231.5 0.4 81 13.7
2007-07-03 15:10:37 51°16.268 2°54.479 232.2 0.8 61 13.7
2007-07-03 15:11:37 51°16.274 2°54.502 232.4 1 60 13.8
2007-07-03 15:12:36 51°16.278 2°54.522 227.7 0.8 185 13.6
2007-07-03 15:13:37 51°16.203 2°54.489 199.6 8.3 193 13.6
2007-07-03 15:14:37 51°16.026 2°54.457 187 12.1 180 13.3
2007-07-03 15:15:37 51°15.822 2°54.466 187.1 12.1 181 12.9
2007-07-03 15:16:37 51°15.618 2°54.458 189.9 12.1 182 12.5
2007-07-03 15:17:37 51°15.415 2°54.47 183.8 12.2 179 11.6
2007-07-03 15:18:37 51°15.211 2°54.482 182.5 12.2 178 11.3
2007-07-03 15:19:37 51°15.007 2°54.512 175.8 12.4 166 11.1
2007-07-03 15:20:37 51°14.814 2°54.635 160.7 12.6 152 11.9
2007-07-03 15:21:37 51°14.626 2°54.797 156.7 12.8 151 11.7
2007-07-03 15:22:37 51°14.443 2°54.983 150.3 13.1 145 12.9
2007-07-03 15:23:37 51°14.286 2°55.219 133.9 12.8 132 13.2
2007-07-03 15:24:40 51°14.128 2°55.414 153.7 9.2 153 13.1
2007-07-03 15:25:39 51°14.014 2°55.496 158.2 7 156 13.2
2007-07-03 15:26:38 51°13.912 2°55.57 158.5 6.8 156 13.7
2007-07-03 15:27:41 51°13.806 2°55.647 152.1 6.6 151 13.4
2007-07-03 15:28:41 51°13.717 2°55.783 131.3 8 130 -999
2007-07-03 15:29:41 51°13.657 2°55.912 126.2 4.9 124 -999
2007-07-03 15:30:41 51°13.62 2°56.004 120.8 3.5 118 -999
2007-07-03 15:31:41 51°13.603 2°56.069 113.5 1.8 110 -999
2007-07-03 15:32:41 51°13.598 2°56.09 117.2 0.3 123 -999